| time (UTC) | temp C | wind direction | speed KPH | gust KPH | rain 1hr cm | rain 24hr cm | rain mn cm | humidity % | barometer mb |
| 20260906224018 | 12 | 236 | 0.0 | 0.0 | 0.00 | 0.00 | 0.00 | 71 | 978.4 |
| 20260906223538 | 12 | 236 | 0.0 | 4.8 | 0.00 | 0.00 | 0.00 | 71 | 978.4 |
| 20260906223038 | 12 | 236 | 0.0 | 4.8 | 0.00 | 0.00 | 0.00 | 71 | 978.7 |
| 20260906222618 | 12 | 236 | 0.0 | 0.0 | 0.00 | 0.00 | 0.00 | 71 | 978.5 |
| 20260906222153 | 12 | 236 | 1.6 | 1.6 | 0.00 | 0.00 | 0.00 | 71 | 978.7 |
| 20260906221713 | 12 | 236 | 0.0 | 0.0 | 0.00 | 0.00 | 0.00 | 71 | 978.6 |
| 20260906221230 | 12 | 236 | 0.0 | 0.0 | 0.00 | 0.00 | 0.00 | 71 | 978.6 |
| 20260906220753 | 12 | 236 | 0.0 | 0.0 | 0.00 | 0.00 | 0.00 | 71 | 978.8 |
| 20260906220338 | 12 | 236 | 0.0 | 0.0 | 0.00 | 0.00 | 0.00 | 71 | 978.7 |
| 20260906215859 | 12 | 236 | 0.0 | 0.0 | 0.00 | 0.00 | 0.00 | 71 | 978.7 |
| 20260906215438 | 12 | 236 | 1.6 | 0.0 | 0.00 | 0.00 | 0.00 | 71 | 978.7 |
| 20260906214948 | 12 | 236 | 0.0 | 0.0 | 0.00 | 0.00 | 0.00 | 71 | 978.7 |
| 20260906214528 | 12 | 236 | 0.0 | 0.0 | 0.00 | 0.00 | 0.00 | 71 | 978.9 |
| 20260906214058 | 12 | 236 | 1.6 | 0.0 | 0.00 | 0.00 | 0.00 | 71 | 978.7 |
| 20260906213618 | 12 | 236 | 0.0 | 0.0 | 0.00 | 0.00 | 0.00 | 71 | 978.6 |
| 20260906213148 | 12 | 236 | 1.6 | 0.0 | 0.00 | 0.00 | 0.00 | 71 | 978.7 |
| 20260906212728 | 12 | 236 | 0.0 | 0.0 | 0.00 | 0.00 | 0.00 | 71 | 978.5 |
| 20260906212238 | 12 | 236 | 0.0 | 0.0 | 0.00 | 0.00 | 0.00 | 67 | 978.6 |
| 20260906211818 | 12 | 239 | 0.0 | 0.0 | 0.00 | 0.00 | 0.00 | 70 | 978.7 |
| 20260906211344 | 12 | 239 | 1.6 | 1.6 | 0.00 | 0.00 | 0.00 | 67 | 978.8 |
| 20260906210938 | 12 | 239 | 1.6 | 1.6 | 0.00 | 0.00 | 0.00 | 67 | 978.7 |
| 20260906210518 | 12 | 234 | 1.6 | 1.6 | 0.00 | 0.00 | 0.00 | 67 | 978.8 |
| 20260906210113 | 12 | 234 | 1.6 | 1.6 | 0.00 | 0.00 | 0.00 | 67 | 978.8 |
| 20260906205653 | 12 | 234 | 0.0 | 1.6 | 0.00 | 0.00 | 0.00 | 67 | 978.9 |
| 20260906205223 | 12 | 234 | 0.0 | 1.6 | 0.00 | 0.00 | 0.00 | 67 | 978.9 |
| 20260906204748 | 12 | 234 | 0.0 | 1.6 | 0.00 | 0.00 | 0.00 | 67 | 978.7 |
| 20260906204318 | 12 | 231 | 0.0 | 1.6 | 0.00 | 0.00 | 0.00 | 67 | 978.6 |
| 20260906203858 | 12 | 231 | 0.0 | 1.6 | 0.00 | 0.00 | 0.00 | 68 | 978.7 |
| 20260906203423 | 12 | 231 | 0.0 | 1.6 | 0.00 | 0.00 | 0.00 | 68 | 978.7 |
| 20260906202958 | 12 | 231 | 0.0 | 1.6 | 0.00 | 0.00 | 0.00 | 60 | 978.7 |
| 20260906202528 | 12 | 231 | 0.0 | 1.6 | 0.00 | 0.00 | 0.00 | 60 | 978.9 |
| 20260906202103 | 13 | 231 | 0.0 | 1.6 | 0.00 | 0.00 | 0.00 | 60 | 978.7 |
| 20260906201628 | 13 | 231 | 0.0 | 1.6 | 0.00 | 0.00 | 0.00 | 60 | 979.1 |
| 20260906201158 | 13 | 231 | 1.6 | 1.6 | 0.00 | 0.00 | 0.00 | 60 | 978.7 |
| 20260906200738 | 13 | 231 | 1.6 | 1.6 | 0.00 | 0.00 | 0.00 | 60 | 978.8 |
| 20260906200308 | 13 | 231 | 1.6 | 1.6 | 0.00 | 0.00 | 0.00 | 60 | 978.7 |
| 20260906195848 | 13 | 195 | 1.6 | 1.6 | 0.00 | 0.00 | 0.00 | 60 | 978.9 |
| 20260906195423 | 13 | 195 | 0.0 | 0.0 | 0.00 | 0.00 | 0.00 | 60 | 978.9 |
| 20260906195008 | 13 | 195 | 1.6 | 0.0 | 0.00 | 0.00 | 0.00 | 60 | 978.8 |
| 20260906194548 | 13 | 195 | 1.6 | 1.6 | 0.00 | 0.00 | 0.00 | 60 | 978.8 |
| 20260906194103 | 13 | 195 | 1.6 | 4.8 | 0.00 | 0.00 | 0.00 | 60 | 978.9 |
| 20260906193639 | 15 | 195 | 1.6 | 4.8 | 0.00 | 0.00 | 0.00 | 60 | 979.1 |
| 20260906193218 | 15 | 194 | 1.6 | 4.8 | 0.00 | 0.00 | 0.00 | 63 | 978.8 |
| 20260906192803 | 15 | 182 | 1.6 | 4.8 | 0.00 | 0.00 | 0.00 | 63 | 978.9 |
| 20260906192333 | 15 | 182 | 1.6 | 4.8 | 0.00 | 0.00 | 0.00 | 63 | 978.8 |
| 20260906191838 | 15 | 172 | 1.6 | 4.8 | 0.00 | 0.00 | 0.00 | 63 | 978.9 |
| 20260906191348 | 15 | 288 | 0.0 | 4.8 | 0.00 | 0.00 | 0.00 | 57 | 979.1 |
| 20260906190928 | 15 | 339 | 0.0 | 4.8 | 0.00 | 0.00 | 0.00 | 57 | 979.1 |
| 20260906190503 | 15 | 339 | 1.6 | 4.8 | 0.00 | 0.00 | 0.00 | 57 | 979.0 |
| 20260906190028 | 15 | 26 | 0.0 | 4.8 | 0.00 | 0.00 | 0.00 | 56 | 978.9 |
| 20260906185548 | 16 | 26 | 1.6 | 4.8 | 0.00 | 0.00 | 0.00 | 52 | 979.0 |
| 20260906185148 | 16 | 26 | 1.6 | 4.8 | 0.00 | 0.00 | 0.00 | 52 | 979.0 |
| 20260906184708 | 16 | 56 | 3.2 | 4.8 | 0.00 | 0.00 | 0.00 | 52 | 979.0 |
| 20260906184233 | 16 | 60 | 0.0 | 1.6 | 0.00 | 0.00 | 0.00 | 52 | 978.7 |
| 20260906183801 | 16 | 60 | 3.2 | 1.6 | 0.00 | 0.00 | 0.00 | 50 | 978.8 |
| 20260906183338 | 16 | 36 | 3.2 | 1.6 | 0.00 | 0.00 | 0.00 | 50 | 978.9 |
| 20260906182923 | 16 | 36 | 3.2 | 1.6 | 0.00 | 0.00 | 0.00 | 53 | 978.8 |
| 20260906182438 | 16 | 36 | 1.6 | 1.6 | 0.00 | 0.00 | 0.00 | 53 | 978.9 |
| 20260906181938 | 16 | 36 | 1.6 | 1.6 | 0.00 | 0.00 | 0.00 | 53 | 978.9 |
| 20260906181523 | 16 | 36 | 0.0 | 0.0 | 0.00 | 0.00 | 0.00 | 53 | 978.8 |
| 20260906181048 | 17 | 36 | 0.0 | 0.0 | 0.00 | 0.00 | 0.00 | 53 | 978.8 |
| 20260906180603 | 17 | 36 | 0.0 | 0.0 | 0.00 | 0.00 | 0.00 | 50 | 978.9 |
| 20260906180149 | 17 | 352 | 0.0 | 0.0 | 0.00 | 0.00 | 0.00 | 50 | 978.7 |
| 20260906175723 | 17 | 352 | 0.0 | 0.0 | 0.00 | 0.00 | 0.00 | 50 | 978.8 |
| 20260906175306 | 18 | 352 | 0.0 | 0.0 | 0.00 | 0.00 | 0.00 | 50 | 979.0 |
| 20260906174833 | 18 | 352 | 0.0 | 0.0 | 0.00 | 0.00 | 0.00 | 50 | 978.9 |
| 20260906174359 | 18 | 352 | 0.0 | 0.0 | 0.00 | 0.00 | 0.00 | 50 | 978.9 |
| 20260906173938 | 18 | 352 | 0.0 | 1.6 | 0.00 | 0.00 | 0.00 | 50 | 979.0 |
| 20260906173533 | 18 | 352 | 0.0 | 1.6 | 0.00 | 0.00 | 0.00 | 45 | 978.9 |
| 20260906173123 | 18 | 352 | 0.0 | 1.6 | 0.00 | 0.00 | 0.00 | 45 | 978.9 |
| 20260906172623 | 19 | 352 | 0.0 | 1.6 | 0.00 | 0.00 | 0.00 | 45 | 978.8 |
| 20260906172148 | 19 | 352 | 0.0 | 1.6 | 0.00 | 0.00 | 0.00 | 39 | 978.8 |
| 20260906171718 | 20 | 352 | 0.0 | 1.6 | 0.00 | 0.00 | 0.00 | 39 | 979.0 |
| 20260906171249 | 20 | 350 | 0.0 | 1.6 | 0.00 | 0.00 | 0.00 | 39 | 978.9 |
| 20260906170823 | 20 | 350 | 0.0 | 1.6 | 0.00 | 0.00 | 0.00 | 38 | 979.0 |
| 20260906170349 | 20 | 350 | 0.0 | 1.6 | 0.00 | 0.00 | 0.00 | 35 | 979.0 |
| 20260906165933 | 20 | 350 | 0.0 | 0.0 | 0.00 | 0.00 | 0.00 | 35 | 978.9 |
| 20260906165453 | 20 | 350 | 0.0 | 4.8 | 0.00 | 0.00 | 0.00 | 36 | 979.0 |
| 20260906165033 | 20 | 350 | 0.0 | 4.8 | 0.00 | 0.00 | 0.00 | 32 | 978.9 |
| 20260906164558 | 21 | 350 | 1.6 | 4.8 | 0.00 | 0.00 | 0.00 | 32 | 979.0 |
| 20260906164128 | 21 | 350 | 0.0 | 4.8 | 0.00 | 0.00 | 0.00 | 32 | 979.0 |
| 20260906163703 | 22 | 21 | 0.0 | 4.8 | 0.00 | 0.00 | 0.00 | 32 | 978.7 |
| 20260906163219 | 22 | 20 | 3.2 | 1.6 | 0.00 | 0.00 | 0.00 | 32 | 978.9 |
| 20260906162743 | 22 | 15 | 0.0 | 1.6 | 0.00 | 0.00 | 0.00 | 32 | 979.0 |
| 20260906162318 | 22 | 15 | 0.0 | 1.6 | 0.00 | 0.00 | 0.00 | 32 | 978.9 |
| 20260906161908 | 22 | 15 | 1.6 | 1.6 | 0.00 | 0.00 | 0.00 | 32 | 978.9 |
| 20260906161428 | 22 | 15 | 3.2 | 4.8 | 0.00 | 0.00 | 0.00 | 32 | 978.9 |
| 20260906160943 | 22 | 15 | 3.2 | 4.8 | 0.00 | 0.00 | 0.00 | 32 | 978.7 |
| 20260906160503 | 22 | 15 | 0.0 | 4.8 | 0.00 | 0.00 | 0.00 | 32 | 979.0 |
| 20260906160013 | 22 | 174 | 0.0 | 4.8 | 0.00 | 0.00 | 0.00 | 32 | 978.8 |
| 20260906155528 | 22 | 157 | 3.2 | 1.6 | 0.00 | 0.00 | 0.00 | 33 | 978.8 |
| 20260906155053 | 22 | 93 | 3.2 | 1.6 | 0.00 | 0.00 | 0.00 | 33 | 978.9 |
| 20260906154628 | 22 | 93 | 3.2 | 0.0 | 0.00 | 0.00 | 0.00 | 33 | 978.8 |
| 20260906154148 | 22 | 93 | 1.6 | 1.6 | 0.00 | 0.00 | 0.00 | 33 | 979.0 |
| 20260906153704 | 22 | 93 | 1.6 | 1.6 | 0.00 | 0.00 | 0.00 | 33 | 978.9 |
| 20260906153218 | 22 | 93 | 1.6 | 1.6 | 0.00 | 0.00 | 0.00 | 33 | 979.1 |
| 20260906152738 | 23 | 93 | 0.0 | 1.6 | 0.00 | 0.00 | 0.00 | 33 | 979.1 |
| 20260906152248 | 23 | 84 | 1.6 | 1.6 | 0.00 | 0.00 | 0.00 | 31 | 979.1 |
| 20260906151843 | 23 | 117 | 1.6 | 1.6 | 0.00 | 0.00 | 0.00 | 31 | 979.1 |
| 20260906151408 | 23 | 117 | 0.0 | 1.6 | 0.00 | 0.00 | 0.00 | 31 | 979.2 |
| 20260906150933 | 23 | 117 | 0.0 | 4.8 | 0.00 | 0.00 | 0.00 | 31 | 979.2 |
| 20260906150508 | 23 | 103 | 3.2 | 4.8 | 0.00 | 0.00 | 0.00 | 31 | 979.5 |
| 20260906150058 | 23 | 103 | 1.6 | 4.8 | 0.00 | 0.00 | 0.00 | 31 | 979.4 |
| 20260906145623 | 23 | 103 | 1.6 | 4.8 | 0.00 | 0.00 | 0.00 | 31 | 979.2 |
| 20260906145203 | 22 | 103 | 0.0 | 8.0 | 0.00 | 0.00 | 0.00 | 31 | 979.4 |
| 20260906144739 | 22 | 103 | 0.0 | 8.0 | 0.00 | 0.00 | 0.00 | 31 | 979.5 |
| 20260906144259 | 22 | 115 | 1.6 | 8.0 | 0.00 | 0.00 | 0.00 | 31 | 979.5 |
| 20260906143833 | 22 | 115 | 0.0 | 8.0 | 0.00 | 0.00 | 0.00 | 31 | 979.4 |
| 20260906143333 | 22 | 354 | 1.6 | 8.0 | 0.00 | 0.00 | 0.00 | 33 | 979.6 |
| 20260906142853 | 23 | 348 | 6.4 | 8.0 | 0.00 | 0.00 | 0.00 | 33 | 979.6 |
| 20260906142428 | 22 | 98 | 0.0 | 4.8 | 0.00 | 0.00 | 0.00 | 33 | 979.7 |
| 20260906142018 | 22 | 106 | 0.0 | 4.8 | 0.00 | 0.00 | 0.00 | 34 | 979.5 |
| 20260906141603 | 22 | 106 | 3.2 | 4.8 | 0.00 | 0.00 | 0.00 | 34 | 979.8 |
| 20260906141118 | 22 | 114 | 3.2 | 4.8 | 0.00 | 0.00 | 0.00 | 34 | 980.0 |
| 20260906140638 | 22 | 114 | 6.4 | 11.3 | 0.00 | 0.00 | 0.00 | 34 | 979.8 |
| 20260906140233 | 22 | 114 | 1.6 | 8.0 | 0.00 | 0.00 | 0.00 | 34 | 979.8 |
| 20260906135800 | 22 | 344 | 4.8 | 0.0 | 0.00 | 0.00 | 0.00 | 34 | 980.0 |
| 20260906135318 | 22 | 107 | 1.6 | 4.8 | 0.00 | 0.00 | 0.00 | 34 | 980.0 |
| 20260906134859 | 22 | 107 | 4.8 | 8.0 | 0.00 | 0.00 | 0.00 | 34 | 979.9 |
| 20260906134438 | 22 | 104 | 0.0 | 4.8 | 0.00 | 0.00 | 0.00 | 34 | 979.9 |
| 20260906133958 | 22 | 104 | 1.6 | 1.6 | 0.00 | 0.00 | 0.00 | 34 | 979.8 |
| 20260906133538 | 22 | 132 | 3.2 | 4.8 | 0.00 | 0.00 | 0.00 | 34 | 979.9 |
| 20260906133053 | 21 | 132 | 1.6 | 8.0 | 0.00 | 0.00 | 0.00 | 36 | 979.9 |
| 20260906132643 | 21 | 132 | 6.4 | 11.3 | 0.00 | 0.00 | 0.00 | 36 | 979.9 |
| 20260906132159 | 21 | 132 | 0.0 | 8.0 | 0.00 | 0.00 | 0.00 | 36 | 980.1 |
| 20260906131719 | 23 | 107 | 4.8 | 1.6 | 0.00 | 0.00 | 0.00 | 34 | 980.1 |
| 20260906131259 | 22 | 107 | 1.6 | 1.6 | 0.00 | 0.00 | 0.00 | 34 | 980.1 |
| 20260906130828 | 21 | 107 | 1.6 | 1.6 | 0.00 | 0.00 | 0.00 | 36 | 980.0 |
| 20260906130427 | 22 | 107 | 4.8 | 4.8 | 0.00 | 0.00 | 0.00 | 37 | 979.9 |
| 20260906125958 | 22 | 107 | 0.0 | 1.6 | 0.00 | 0.00 | 0.00 | 37 | 979.9 |
| 20260906125528 | 22 | 107 | 0.0 | 4.8 | 0.00 | 0.00 | 0.00 | 37 | 980.1 |
| 20260906125108 | 20 | 96 | 6.4 | 11.3 | 0.00 | 0.00 | 0.00 | 37 | 980.2 |
| 20260906124633 | 20 | 80 | 4.8 | 8.0 | 0.00 | 0.00 | 0.00 | 41 | 980.1 |
| 20260906124153 | 20 | 336 | 3.2 | 8.0 | 0.00 | 0.00 | 0.00 | 39 | 980.2 |
| 20260906123713 | 20 | 327 | 0.0 | 14.5 | 0.00 | 0.00 | 0.00 | 39 | 980.2 |
| 20260906123238 | 20 | 89 | 0.0 | 4.8 | 0.00 | 0.00 | 0.00 | 39 | 980.4 |
| 20260906122818 | 20 | 349 | 0.0 | 1.6 | 0.00 | 0.00 | 0.00 | 40 | 980.6 |
| 20260906122333 | 21 | 349 | 0.0 | 1.6 | 0.00 | 0.00 | 0.00 | 37 | 980.5 |
| 20260906121903 | 21 | 342 | 0.0 | 11.3 | 0.00 | 0.00 | 0.00 | 37 | 980.5 |
| 20260906121448 | 20 | 345 | 0.0 | 0.0 | 0.00 | 0.00 | 0.00 | 37 | 980.4 |
| 20260906121023 | 21 | 345 | 6.4 | 0.0 | 0.00 | 0.00 | 0.00 | 37 | 980.4 |
| 20260906120558 | 21 | 107 | 3.2 | 0.0 | 0.00 | 0.00 | 0.00 | 37 | 980.5 |
| 20260906120138 | 21 | 0 | 0.0 | 0.0 | 0.00 | 0.00 | 0.00 | 37 | 980.6 |
| 20260906115708 | 20 | 108 | 3.2 | 4.8 | 0.00 | 0.00 | 0.00 | 42 | 980.7 |
| 20260906115239 | 20 | 108 | 0.0 | 8.0 | 0.00 | 0.00 | 0.00 | 42 | 980.7 |
| 20260906114833 | 19 | 14 | 0.0 | 1.6 | 0.00 | 0.00 | 0.00 | 44 | 980.8 |
| 20260906114405 | 19 | 14 | 4.8 | 14.5 | 0.00 | 0.00 | 0.00 | 44 | 980.9 |
| 20260906113959 | 18 | 113 | 8.0 | 11.3 | 0.00 | 0.00 | 0.00 | 44 | 980.8 |
| 20260906113533 | 19 | 106 | 8.0 | 14.5 | 0.00 | 0.00 | 0.00 | 44 | 981.1 |
| 20260906113043 | 19 | 51 | 1.6 | 14.5 | 0.00 | 0.00 | 0.00 | 44 | 981.1 |
| 20260906112618 | 19 | 51 | 4.8 | 11.3 | 0.00 | 0.00 | 0.00 | 44 | 980.9 |
| 20260906112133 | 19 | 99 | 0.0 | 1.6 | 0.00 | 0.00 | 0.00 | 44 | 980.9 |
| 20260906111718 | 19 | 99 | 0.0 | 4.8 | 0.00 | 0.00 | 0.00 | 44 | 981.0 |
| 20260906111233 | 19 | 99 | 0.0 | 14.5 | 0.00 | 0.00 | 0.00 | 44 | 981.0 |
| 20260906110813 | 18 | 105 | 6.4 | 4.8 | 0.00 | 0.00 | 0.00 | 44 | 981.0 |
| 20260906110348 | 18 | 102 | 0.0 | 8.0 | 0.00 | 0.00 | 0.00 | 44 | 981.0 |
| 20260906105900 | 18 | 110 | 1.6 | 8.0 | 0.00 | 0.00 | 0.00 | 44 | 980.8 |
| 20260906105418 | 18 | 114 | 1.6 | 11.3 | 0.00 | 0.00 | 0.00 | 46 | 981.2 |
| 20260906105008 | 19 | 114 | 1.6 | 14.5 | 0.00 | 0.00 | 0.00 | 45 | 981.2 |
| 20260906104528 | 17 | 101 | 1.6 | 4.8 | 0.00 | 0.00 | 0.00 | 45 | 980.9 |
| 20260906104038 | 17 | 126 | 1.6 | 4.8 | 0.00 | 0.00 | 0.00 | 45 | 981.1 |
| 20260906103549 | 17 | 126 | 9.7 | 14.5 | 0.00 | 0.00 | 0.00 | 48 | 981.1 |
| 20260906103118 | 18 | 104 | 4.8 | 11.3 | 0.00 | 0.00 | 0.00 | 48 | 981.1 |
| 20260906102643 | 18 | 147 | 6.4 | 11.3 | 0.00 | 0.00 | 0.00 | 48 | 981.3 |
| 20260906102219 | 18 | 110 | 1.6 | 17.7 | 0.00 | 0.00 | 0.00 | 47 | 981.3 |
| 20260906101748 | 18 | 115 | 1.6 | 14.5 | 0.00 | 0.00 | 0.00 | 45 | 981.4 |
| 20260906101323 | 18 | 115 | 1.6 | 1.6 | 0.00 | 0.00 | 0.00 | 51 | 981.4 |
| 20260906100908 | 17 | 347 | 3.2 | 11.3 | 0.00 | 0.00 | 0.00 | 51 | 981.4 |
| 20260906100418 | 17 | 99 | 3.2 | 1.6 | 0.00 | 0.00 | 0.00 | 51 | 981.5 |
| 20260906095958 | 16 | 357 | 1.6 | 4.8 | 0.00 | 0.00 | 0.00 | 51 | 981.4 |
| 20260906095523 | 16 | 77 | 0.0 | 4.8 | 0.00 | 0.00 | 0.00 | 54 | 981.4 |
| 20260906095029 | 16 | 339 | 1.6 | 4.8 | 0.00 | 0.00 | 0.00 | 54 | 981.6 |
| 20260906094559 | 16 | 339 | 0.0 | 11.3 | 0.00 | 0.00 | 0.00 | 55 | 981.7 |
| 20260906094148 | 17 | 339 | 0.0 | 11.3 | 0.00 | 0.00 | 0.00 | 54 | 981.6 |
| 20260906093653 | 17 | 28 | 12.9 | 4.8 | 0.00 | 0.00 | 0.00 | 54 | 981.7 |
| 20260906093218 | 17 | 112 | 1.6 | 8.0 | 0.00 | 0.00 | 0.00 | 56 | 981.7 |
| 20260906092733 | 15 | 351 | 1.6 | 4.8 | 0.00 | 0.00 | 0.00 | 56 | 981.7 |
| 20260906092248 | 15 | 352 | 3.2 | 8.0 | 0.00 | 0.00 | 0.00 | 56 | 981.6 |
| 20260906091839 | 15 | 352 | 0.0 | 4.8 | 0.00 | 0.00 | 0.00 | 56 | 981.8 |
| 20260906091408 | 15 | 328 | 8.0 | 4.8 | 0.00 | 0.00 | 0.00 | 53 | 981.7 |
| 20260906090953 | 15 | 101 | 0.0 | 4.8 | 0.00 | 0.00 | 0.00 | 56 | 981.8 |
| 20260906090518 | 16 | 341 | 12.9 | 8.0 | 0.00 | 0.00 | 0.00 | 52 | 981.8 |
| 20260906090058 | 16 | 110 | 1.6 | 8.0 | 0.00 | 0.00 | 0.00 | 52 | 981.8 |
| 20260906085613 | 16 | 110 | 3.2 | 8.0 | 0.00 | 0.00 | 0.00 | 52 | 981.9 |
| 20260906085119 | 13 | 110 | 1.6 | 4.8 | 0.00 | 0.00 | 0.00 | 52 | 981.7 |
| 20260906084708 | 13 | 345 | 3.2 | 1.6 | 0.00 | 0.00 | 0.00 | 59 | 981.7 |
| 20260906084225 | 13 | 345 | 11.3 | 8.0 | 0.00 | 0.00 | 0.00 | 59 | 981.8 |
| 20260906083748 | 14 | 325 | 11.3 | 8.0 | 0.00 | 0.00 | 0.00 | 59 | 981.5 |
| 20260906083318 | 14 | 344 | 0.0 | 14.5 | 0.00 | 0.00 | 0.00 | 61 | 981.7 |
| 20260906082843 | 14 | 347 | 1.6 | 4.8 | 0.00 | 0.00 | 0.00 | 59 | 981.8 |
| 20260906082423 | 13 | 15 | 11.3 | 14.5 | 0.00 | 0.00 | 0.00 | 59 | 981.7 |
| 20260906082003 | 13 | 15 | 6.4 | 4.8 | 0.00 | 0.00 | 0.00 | 60 | 981.7 |
| 20260906081538 | 13 | 19 | 4.8 | 4.8 | 0.00 | 0.00 | 0.00 | 60 | 981.7 |
| 20260906081118 | 13 | 334 | 3.2 | 8.0 | 0.00 | 0.00 | 0.00 | 61 | 981.7 |
| 20260906080648 | 14 | 337 | 1.6 | 11.3 | 0.00 | 0.00 | 0.00 | 61 | 981.6 |
| 20260906080203 | 14 | 342 | 1.6 | 1.6 | 0.00 | 0.00 | 0.00 | 61 | 981.5 |
| 20260906075725 | 14 | 341 | 1.6 | 1.6 | 0.00 | 0.00 | 0.00 | 61 | 981.7 |
| 20260906075248 | 13 | 341 | 1.6 | 1.6 | 0.00 | 0.00 | 0.00 | 63 | 981.4 |
| 20260906074753 | 14 | 336 | 12.9 | 8.0 | 0.00 | 0.00 | 0.00 | 63 | 981.4 |
| 20260906074328 | 14 | 69 | 14.5 | 4.8 | 0.00 | 0.00 | 0.00 | 63 | 981.6 |
| 20260906073903 | 13 | 69 | 3.2 | 4.8 | 0.00 | 0.00 | 0.00 | 63 | 981.4 |
| 20260906073423 | 13 | 69 | 0.0 | 4.8 | 0.00 | 0.00 | 0.00 | 68 | 981.3 |
| 20260906072958 | 13 | 0 | 0.0 | 0.0 | 0.00 | 0.00 | 0.00 | 100 | 981.8 |
| 20260906072508 | 13 | 333 | 3.2 | 14.5 | 0.00 | 0.00 | 0.00 | 70 | 981.7 |
| 20260906072023 | 12 | 334 | 3.2 | 11.3 | 0.00 | 0.00 | 0.00 | 69 | 981.4 |
| 20260906071533 | 13 | 340 | 3.2 | 11.3 | 0.00 | 0.00 | 0.00 | 70 | 981.4 |
| 20260906071108 | 13 | 347 | 6.4 | 1.6 | 0.00 | 0.00 | 0.00 | 68 | 981.1 |
| 20260906070618 | 13 | 7 | 1.6 | 4.8 | 0.00 | 0.00 | 0.00 | 68 | 981.2 |
| 20260906070133 | 13 | 7 | 0.0 | 0.0 | 0.00 | 0.00 | 0.00 | 68 | 981.1 |
| 20260906065658 | 15 | 7 | 0.0 | 4.8 | 0.00 | 0.00 | 0.00 | 68 | 981.1 |
| 20260906065213 | 15 | 22 | 1.6 | 1.6 | 0.00 | 0.00 | 0.00 | 68 | 981.2 |
| 20260906064738 | 14 | 66 | 0.0 | 1.6 | 0.00 | 0.00 | 0.00 | 68 | 981.1 |
| 20260906064313 | 14 | 64 | 0.0 | 1.6 | 0.00 | 0.00 | 0.00 | 68 | 981.3 |
| 20260906063843 | 14 | 64 | 0.0 | 1.6 | 0.00 | 0.00 | 0.00 | 67 | 981.3 |
| 20260906063408 | 13 | 64 | 1.6 | 1.6 | 0.00 | 0.00 | 0.00 | 67 | 981.3 |
| 20260906062938 | 13 | 64 | 1.6 | 1.6 | 0.00 | 0.00 | 0.00 | 67 | 981.1 |
| 20260906062513 | 13 | 58 | 1.6 | 1.6 | 0.00 | 0.00 | 0.00 | 67 | 981.1 |
| 20260906062033 | 13 | 39 | 3.2 | 1.6 | 0.00 | 0.00 | 0.00 | 67 | 981.0 |
| 20260906061608 | 13 | 39 | 3.2 | 1.6 | 0.00 | 0.00 | 0.00 | 67 | 981.0 |
| 20260906061153 | 11 | 39 | 3.2 | 1.6 | 0.00 | 0.00 | 0.00 | 69 | 981.0 |
| 20260906060708 | 11 | 39 | 3.2 | 1.6 | 0.00 | 0.00 | 0.00 | 80 | 980.9 |
| 20260906060243 | 11 | 39 | 1.6 | 1.6 | 0.00 | 0.00 | 0.00 | 80 | 980.7 |
| 20260906055803 | 9 | 39 | 1.6 | 1.6 | 0.00 | 0.00 | 0.00 | 80 | 980.9 |
| 20260906055313 | 9 | 39 | 0.0 | 0.0 | 0.00 | 0.00 | 0.00 | 84 | 980.8 |
| 20260906054853 | 9 | 39 | 1.6 | 0.0 | 0.00 | 0.00 | 0.00 | 84 | 981.1 |
| 20260906054428 | 9 | 39 | 1.6 | 1.6 | 0.00 | 0.00 | 0.00 | 84 | 980.7 |
| 20260906054000 | 9 | 39 | 1.6 | 1.6 | 0.00 | 0.00 | 0.00 | 84 | 981.0 |
| 20260906053523 | 8 | 39 | 1.6 | 0.0 | 0.00 | 0.00 | 0.00 | 84 | 980.7 |
| 20260906053108 | 8 | 39 | 1.6 | 0.0 | 0.00 | 0.00 | 0.00 | 84 | 980.8 |
| 20260906052633 | 8 | 39 | 1.6 | 0.0 | 0.00 | 0.00 | 0.00 | 84 | 980.5 |
| 20260906052158 | 8 | 39 | 0.0 | 0.0 | 0.00 | 0.00 | 0.00 | 84 | 980.7 |
| 20260906051728 | 8 | 39 | 0.0 | 0.0 | 0.00 | 0.00 | 0.00 | 89 | 980.6 |
| 20260906051253 | 8 | 39 | 1.6 | 0.0 | 0.00 | 0.00 | 0.00 | 89 | 980.4 |
| 20260906050819 | 8 | 39 | 1.6 | 0.0 | 0.00 | 0.00 | 0.00 | 89 | 980.4 |
| 20260906050348 | 8 | 39 | 1.6 | 0.0 | 0.00 | 0.00 | 0.00 | 90 | 980.6 |
| 20260906045908 | 8 | 39 | 0.0 | 0.0 | 0.00 | 0.00 | 0.00 | 89 | 980.4 |
| 20260906045418 | 8 | 39 | 1.6 | 0.0 | 0.00 | 0.00 | 0.00 | 85 | 980.5 |
| 20260906044943 | 9 | 39 | 0.0 | 0.0 | 0.00 | 0.00 | 0.00 | 85 | 980.4 |
| 20260906044539 | 8 | 39 | 1.6 | 0.0 | 0.00 | 0.00 | 0.00 | 90 | 980.4 |
| 20260906044113 | 8 | 39 | 0.0 | 0.0 | 0.00 | 0.00 | 0.00 | 90 | 980.3 |
| 20260906043628 | 8 | 39 | 0.0 | 0.0 | 0.00 | 0.00 | 0.00 | 90 | 980.2 |
| 20260906043208 | 8 | 39 | 0.0 | 0.0 | 0.00 | 0.00 | 0.00 | 90 | 980.4 |
| 20260906042753 | 8 | 39 | 0.0 | 0.0 | 0.00 | 0.00 | 0.00 | 90 | 980.4 |
| 20260906042339 | 8 | 39 | 0.0 | 0.0 | 0.00 | 0.00 | 0.00 | 91 | 980.4 |
| 20260906041939 | 8 | 39 | 0.0 | 0.0 | 0.00 | 0.00 | 0.00 | 91 | 980.4 |
| 20260906041448 | 8 | 66 | 0.0 | 0.0 | 0.00 | 0.00 | 0.00 | 91 | 980.5 |
| 20260906041048 | 8 | 66 | 0.0 | 0.0 | 0.00 | 0.00 | 0.00 | 91 | 980.3 |
| 20260906040638 | 8 | 66 | 1.6 | 0.0 | 0.00 | 0.00 | 0.00 | 91 | 980.6 |
| 20260906040201 | 8 | 66 | 0.0 | 0.0 | 0.00 | 0.00 | 0.00 | 91 | 980.3 |
| 20260906035748 | 8 | 66 | 0.0 | 0.0 | 0.00 | 0.00 | 0.00 | 90 | 980.4 |
| 20260906035323 | 8 | 66 | 1.6 | 0.0 | 0.00 | 0.00 | 0.00 | 90 | 980.3 |
| 20260906034853 | 8 | 66 | 0.0 | 0.0 | 0.00 | 0.00 | 0.00 | 91 | 980.2 |
| 20260906034443 | 8 | 335 | 0.0 | 1.6 | 0.00 | 0.00 | 0.00 | 91 | 980.2 |
| 20260906034013 | 8 | 335 | 0.0 | 1.6 | 0.00 | 0.00 | 0.00 | 91 | 980.1 |
| 20260906033533 | 8 | 332 | 0.0 | 1.6 | 0.00 | 0.00 | 0.00 | 89 | 979.8 |
| 20260906033045 | 8 | 332 | 0.0 | 4.8 | 0.00 | 0.00 | 0.00 | 89 | 980.1 |
| 20260906032629 | 8 | 76 | 0.0 | 1.6 | 0.00 | 0.00 | 0.00 | 89 | 980.3 |
| 20260906032208 | 8 | 76 | 0.0 | 0.0 | 0.00 | 0.00 | 0.00 | 89 | 979.9 |
| 20260906031743 | 8 | 76 | 0.0 | 0.0 | 0.00 | 0.00 | 0.00 | 89 | 980.1 |
| 20260906031300 | 8 | 76 | 0.0 | 0.0 | 0.00 | 0.00 | 0.00 | 87 | 980.2 |
| 20260906030828 | 9 | 76 | 0.0 | 0.0 | 0.00 | 0.00 | 0.00 | 87 | 980.0 |
| 20260906030350 | 9 | 76 | 0.0 | 0.0 | 0.00 | 0.00 | 0.00 | 87 | 980.0 |
| 20260906025908 | 9 | 76 | 0.0 | 0.0 | 0.00 | 0.00 | 0.00 | 87 | 980.1 |
| 20260906025428 | 9 | 76 | 0.0 | 0.0 | 0.00 | 0.00 | 0.00 | 87 | 980.0 |
| 20260906024933 | 9 | 76 | 0.0 | 1.6 | 0.00 | 0.00 | 0.00 | 87 | 979.8 |
| 20260906024458 | 9 | 76 | 0.0 | 4.8 | 0.00 | 0.00 | 0.00 | 87 | 979.9 |
| 20260906024023 | 9 | 76 | 1.6 | 4.8 | 0.00 | 0.00 | 0.00 | 87 | 979.9 |
| 20260906023550 | 9 | 76 | 1.6 | 4.8 | 0.00 | 0.00 | 0.00 | 87 | 979.9 |
| 20260906023119 | 10 | 76 | 1.6 | 4.8 | 0.00 | 0.00 | 0.00 | 87 | 979.9 |
| 20260906022633 | 10 | 76 | 1.6 | 4.8 | 0.00 | 0.00 | 0.00 | 87 | 979.8 |
| 20260906022228 | 10 | 76 | 1.6 | 1.6 | 0.00 | 0.00 | 0.00 | 87 | 979.7 |
| 20260906021818 | 10 | 76 | 0.0 | 1.6 | 0.00 | 0.00 | 0.00 | 87 | 979.9 |
| 20260906021343 | 10 | 120 | 1.6 | 1.6 | 0.00 | 0.00 | 0.00 | 85 | 979.6 |
| 20260906020908 | 10 | 210 | 0.0 | 1.6 | 0.00 | 0.00 | 0.00 | 85 | 979.6 |
| 20260906020428 | 10 | 210 | 1.6 | 1.6 | 0.00 | 0.00 | 0.00 | 85 | 979.7 |
| 20260906015933 | 10 | 210 | 0.0 | 1.6 | 0.00 | 0.00 | 0.00 | 85 | 979.7 |
| 20260906015533 | 10 | 210 | 0.0 | 1.6 | 0.00 | 0.00 | 0.00 | 85 | 979.7 |
| 20260906015048 | 10 | 210 | 0.0 | 0.0 | 0.00 | 0.00 | 0.00 | 82 | 979.3 |
| 20260906014608 | 10 | 210 | 0.0 | 0.0 | 0.00 | 0.00 | 0.00 | 82 | 979.7 |
| 20260906014128 | 10 | 210 | 0.0 | 0.0 | 0.00 | 0.00 | 0.00 | 82 | 979.4 |
| 20260906013713 | 10 | 210 | 0.0 | 0.0 | 0.00 | 0.00 | 0.00 | 82 | 979.4 |
| 20260906013248 | 10 | 210 | 0.0 | 0.0 | 0.00 | 0.00 | 0.00 | 82 | 979.4 |
| 20260906012808 | 10 | 210 | 0.0 | 1.6 | 0.00 | 0.00 | 0.00 | 82 | 979.8 |
| 20260906012348 | 10 | 210 | 0.0 | 0.0 | 0.00 | 0.00 | 0.00 | 82 | 979.4 |
| 20260906011918 | 10 | 210 | 0.0 | 1.6 | 0.00 | 0.00 | 0.00 | 82 | 979.4 |
| 20260906011448 | 10 | 210 | 0.0 | 1.6 | 0.00 | 0.00 | 0.00 | 82 | 979.3 |
| 20260906011038 | 10 | 210 | 1.6 | 1.6 | 0.00 | 0.00 | 0.00 | 82 | 979.3 |
| 20260906010608 | 10 | 210 | 3.2 | 1.6 | 0.00 | 0.00 | 0.00 | 82 | 979.1 |
| 20260906010138 | 10 | 210 | 0.0 | 0.0 | 0.00 | 0.00 | 0.00 | 82 | 979.3 |
| 20260906005718 | 10 | 210 | 0.0 | 0.0 | 0.00 | 0.00 | 0.00 | 82 | 979.3 |
| 20260906005308 | 10 | 210 | 0.0 | 0.0 | 0.00 | 0.00 | 0.00 | 82 | 979.3 |
| 20260906004818 | 10 | 210 | 0.0 | 0.0 | 0.00 | 0.00 | 0.00 | 82 | 979.1 |
| 20260906004358 | 10 | 210 | 0.0 | 0.0 | 0.00 | 0.00 | 0.00 | 82 | 979.5 |
| 20260906003918 | 10 | 210 | 0.0 | 0.0 | 0.00 | 0.00 | 0.00 | 82 | 979.3 |
| 20260906003439 | 11 | 210 | 0.0 | 0.0 | 0.00 | 0.00 | 0.00 | 82 | 979.3 |
| 20260906003008 | 11 | 210 | 0.0 | 0.0 | 0.00 | 0.00 | 0.00 | 82 | 979.3 |
| 20260906002538 | 11 | 210 | 1.6 | 1.6 | 0.00 | 0.00 | 0.00 | 74 | 979.3 |
| 20260906002109 | 11 | 210 | 0.0 | 1.6 | 0.00 | 0.00 | 0.00 | 74 | 979.2 |
| 20260906001628 | 11 | 210 | 0.0 | 1.6 | 0.00 | 0.00 | 0.00 | 74 | 979.2 |
| 20260906001208 | 11 | 210 | 1.6 | 1.6 | 0.00 | 0.00 | 0.00 | 74 | 979.0 |
| 20260906000728 | 11 | 211 | 0.0 | 1.6 | 0.00 | 0.00 | 0.00 | 74 | 978.9 |
| 20260906000248 | 11 | 211 | 1.6 | 1.6 | 0.00 | 0.00 | 0.00 | 74 | 979.0 |
| 20260905235800 | 11 | 166 | 3.2 | 0.0 | 0.00 | 0.00 | 0.00 | 74 | 979.1 |
| 20260905235338 | 11 | 166 | 1.6 | 0.0 | 0.00 | 0.00 | 0.00 | 74 | 979.0 |
| 20260905234853 | 11 | 166 | 0.0 | 0.0 | 0.00 | 0.00 | 0.00 | 74 | 979.1 |
| 20260905234418 | 11 | 179 | 0.0 | 0.0 | 0.00 | 0.00 | 0.00 | 74 | 978.9 |
| 20260905233928 | 11 | 179 | 0.0 | 0.0 | 0.00 | 0.00 | 0.00 | 74 | 979.0 |
| 20260905233518 | 11 | 153 | 1.6 | 0.0 | 0.00 | 0.00 | 0.00 | 74 | 978.9 |
| 20260905233053 | 12 | 15 | 1.6 | 0.0 | 0.00 | 0.00 | 0.00 | 74 | 978.9 |
| 20260905232618 | 12 | 15 | 1.6 | 0.0 | 0.00 | 0.00 | 0.00 | 74 | 979.0 |
| 20260905232123 | 11 | 15 | 0.0 | 0.0 | 0.00 | 0.00 | 0.00 | 74 | 978.6 |
| 20260905231659 | 11 | 15 | 0.0 | 0.0 | 0.00 | 0.00 | 0.00 | 74 | 978.9 |
| 20260905231228 | 11 | 15 | 0.0 | 0.0 | 0.00 | 0.00 | 0.00 | 74 | 978.7 |
| 20260905230748 | 11 | 15 | 0.0 | 1.6 | 0.00 | 0.00 | 0.00 | 76 | 978.7 |
| 20260905230303 | 11 | 15 | 0.0 | 0.0 | 0.00 | 0.00 | 0.00 | 76 | 978.8 |
| 20260905225828 | 12 | 15 | 0.0 | 0.0 | 0.00 | 0.00 | 0.00 | 73 | 978.8 |
| 20260905225358 | 12 | 15 | 1.6 | 1.6 | 0.00 | 0.00 | 0.00 | 73 | 978.7 |
| 20260905224938 | 12 | 15 | 0.0 | 1.6 | 0.00 | 0.00 | 0.00 | 72 | 978.5 |
| 20260905224458 | 12 | 15 | 0.0 | 1.6 | 0.00 | 0.00 | 0.00 | 72 | 978.6 |